Torna al catalogo

THOR ABLESTAR DEB

AttivoPO
NORAD 753·DEBRIS·🇺🇸 United States

Lanciato Dec 5, 1963 da Vandenberg Space Force Base

Loading…

Prossimi Passaggi (prossime 24 ore)

TLE

AggiornatoSource: Space-Track

Epoca: Sep 14, 2026, 10:54 UTC

1 00753U 63049F   26257.45439147  .00000189  00000-0  26106-3 0  9992
2 00753  89.9117  71.9498 0025521 304.9835  83.4182 13.54968942 92645

Traccia THOR ABLESTAR DEB in tempo reale con AllMySat

Download on the App Store